This demonstration page uses our WeatherBlox Daily Observations layout. Learn more.

Left ArrowRight Arrow

41.86663, -103.66717

Hourly Observations for April 1, 2017

Temp ( °F °C ) Dew Point ( °F °C ) Humidity (%) Winds ( mph kmh ) Pressure ( in mb ) Visibility ( mi km ) Precip ( " mm )
12:33 am 00:33 Cloudy 36 2.2 33 0.6 89 89 ENE 10 17 30.24 1024 10 16.0934 N/A
12:53 am 00:53 Cloudy with Light Rain 36 2.2 33 0.6 89 89 ENE 10 17 30.22 1023 10 16.0934 0.01 0.254
1:11 am 01:11 Cloudy with Light Rain 36 2.2 34 1.1 93 93 NE 9 15 30.24 1024 8 12.87472 N/A
1:28 am 01:28 Cloudy with Light Rain 36 2 34 1 93 93 NE 8 13 30.24 1024 10 16.0934 N/A
1:35 am 01:35 Cloudy with Light Rain 36 2.2 34 1.1 93 93 NE 9 15 30.24 1024 10 16.0934 0.01 0.254
1:53 am 01:53 Cloudy 36 2.2 34 1.1 93 93 NE 7 11 30.2 1023 10 16.0934 0.01 0.254
2:05 am 02:05 Cloudy 36 2.2 34 1.1 93 93 NE 7 11 30.21 1023 10 16.0934 N/A
2:53 am 02:53 Cloudy 37 2.8 34 1.1 89 89 NNE 6 9 30.2 1023 10 16.0934 N/A
3:50 am 03:50 Cloudy 36 2 34 1 93 93 N 3 6 30.21 1023 10 16.0934 N/A
3:51 am 03:51 Cloudy 36 2 34 1 93 93 N 3 6 30.21 1023 10 16.0934 N/A
4:53 am 04:53 Cloudy 36 2.2 33 0.6 89 89 E 6 9 30.22 1023 10 16.0934 N/A
5:53 am 05:53 Cloudy 36 2.2 34 1.1 93 93 SSE 5 7 30.24 1024 10 16.0934 N/A
6:53 am 06:53 Cloudy 37 2.8 34 1.1 89 89 NNE 5 7 30.24 1024 10 16.0934 N/A
7:53 am 07:53 Cloudy 37 2.8 34 1.1 89 89 ENE 5 7 30.25 1024 10 16.0934 N/A
8:53 am 08:53 Cloudy 38 3.3 35 1.7 89 89 E 5 7 30.25 1024 7 11.26538 N/A
9:06 am 09:06 Cloudy with Mist and Fog 37 3 36 2 93 93 E 5 7 30.27 1025 6 9.65604 N/A
9:53 am 09:53 Cloudy 39 3.9 35 1.7 86 86 N N/A 30.23 1024 7 11.26538 N/A
10:16 am 10:16 Cloudy 39 4 36 2 87 87 N N/A 30.21 1023 10 16.0934 N/A
10:53 am 10:53 Cloudy 41 5 36 2.2 82 82 N N/A 30.22 1023 10 16.0934 N/A
11:14 am 11:14 Cloudy 43 6 36 2 76 76 N N/A 30.18 1022 10 16.0934 N/A
11:53 am 11:53 Cloudy 42 5.6 36 2.2 79 79 SSW 6 9 30.2 1023 10 16.0934 N/A
12:53 pm 12:53 Cloudy 43 6.1 35 1.7 74 74 VRB 3 6 30.18 1022 10 16.0934 N/A
1:53 pm 13:53 Cloudy 44 6.7 35 1.7 71 71 SE 8 13 30.17 1022 8 12.87472 N/A
2:11 pm 14:11 Cloudy 44 6.7 35 1.7 71 71 E 6 9 30.15 1021 10 16.0934 N/A
2:53 pm 14:53 Cloudy 43 6.1 35 1.7 74 74 E 7 11 30.14 1021 10 16.0934 N/A
3:53 pm 15:53 Cloudy 44 6.7 36 2.2 73 73 N N/A 30.13 1020 10 16.0934 N/A
4:44 pm 16:44 Mostly Cloudy 46 8 34 1 62 62 SSE 5 7 30.09 1019 10 16.0934 N/A
4:53 pm 16:53 Mostly Sunny 46 7.8 35 1.7 66 66 S 6 9 30.09 1019 10 16.0934 N/A
5:53 pm 17:53 Mostly Cloudy 46 7.8 33 0.6 61 61 SSE 10 17 30.06 1018 10 16.0934 N/A
6:53 pm 18:53 Mostly Cloudy 45 7.2 34 1.1 66 66 S 6 9 30.06 1018 10 16.0934 N/A
7:01 pm 19:01 Partly Cloudy 44 6.7 34 1.1 68 68 SSE 6 9 30.03 1017 10 16.0934 N/A
7:53 pm 19:53 Partly Cloudy 42 5.6 34 1.1 73 73 undefined N/A 30.07 1018 10 16.0934 N/A
8:53 pm 20:53 Clear 41 5 34 1.1 76 76 SE 8 13 30.05 1018 10 16.0934 N/A
9:53 pm 21:53 Clear 38 3.3 33 0.6 83 83 SE 9 15 30.04 1017 10 16.0934 N/A
10:53 pm 22:53 Clear 35 1.7 31 -0.6 85 85 ESE 5 7 30.04 1017 10 16.0934 N/A
11:53 pm 23:53 Clear 34 1.1 31 -0.6 89 89 SE 5 7 30.03 1017 10 16.0934 N/A

Powered by AerisWeather